Date String (YYYY-MM-DD hh:mm:ss) UTC,Instrument flags,Ambient pressure (hPa),Sample flow (lpm),Bypass flow (lpm),Sample temperature (°C),Ambient temperature (°C),ASC tube jacket temperature (°C),LED temperature (°C),Box temperature (°C),Sample RH (%),Span deviation,Mass concentration (μg/m³),Mass concentration (μg/m³),Mass concentration (μg/m³)
DateTimeUTC,F1_M11,P_M11,Q1_M11,Q2_M11,T1_M11,T2_M11,T3_M11,T4_M11,T5_M11,U1_M11,ZSPAN_M11,X2_M11,X0_M11,X1_M11
2022-12-13 02:00:00,,0810.2,5.01,0.00,22.3,20.3,00.0,31.2,24.0,12.1,0004.2,0005.61,0013.93,0004.66
2022-12-13 02:01:00,,0810.2,5.01,0.00,22.3,20.5,00.0,31.2,24.1,12.1,0003.8,0005.59,0013.99,0004.66
2022-12-13 02:02:00,,0810.3,4.98,0.00,22.4,21.3,00.0,31.2,24.2,12.1,0003.6,0005.56,0013.64,0004.66
2022-12-13 02:03:00,,0810.3,5.01,0.00,22.4,22.0,00.0,31.2,24.4,12.1,0003.6,0005.56,0013.33,0004.66
2022-12-13 02:04:00,,0810.3,5.02,0.00,22.5,21.8,00.0,31.2,24.4,12.1,0003.3,0005.54,0013.30,0004.67
2022-12-13 02:05:00,,0810.3,4.99,0.00,22.5,21.6,00.0,31.3,24.4,12.1,0002.7,0005.55,0013.54,0004.69
2022-12-13 02:06:00,,0810.4,4.99,0.00,22.5,21.4,00.0,31.3,24.3,12.1,0002.5,0005.58,0013.91,0004.69
2022-12-13 02:07:00,,0810.5,5.03,0.00,22.5,21.2,00.0,31.3,24.3,12.1,0002.1,0005.60,0013.76,0004.69
2022-12-13 02:08:00,,0810.6,4.98,0.00,22.5,21.1,00.0,31.3,24.3,12.2,0001.8,0005.57,0012.91,0004.68
2022-12-13 02:09:00,,0810.6,5.02,0.00,22.4,21.0,00.0,31.3,24.2,12.2,0000.9,0005.61,0013.18,0004.67
2022-12-13 02:10:00,,0810.6,4.99,0.00,22.4,20.9,00.0,31.3,24.2,12.2,0000.3,0005.64,0013.21,0004.68
2022-12-13 02:11:00,,0810.6,5.00,0.00,22.4,20.7,00.0,31.3,24.2,12.3,0000.5,0005.68,0012.86,0004.70
2022-12-13 02:12:00,,0810.5,5.00,0.00,22.4,20.6,00.0,31.3,24.1,12.3,0000.3,0005.71,0012.72,0004.71
2022-12-13 02:13:00,,0810.5,5.02,0.00,22.4,20.5,00.0,31.3,24.1,12.4,-000.1,0005.75,0013.31,0004.71
2022-12-13 02:14:00,,0810.5,4.97,0.00,22.3,20.5,00.0,31.2,24.1,12.4,-000.5,0005.82,0014.02,0004.71
2022-12-13 02:15:00,,0810.5,5.02,0.00,22.3,20.4,00.0,31.2,24.0,12.4,-000.3,0005.84,0014.07,0004.70
2022-12-13 02:16:00,,0810.4,4.97,0.00,22.3,20.4,00.0,31.2,24.0,12.5,-000.1,0005.83,0014.27,0004.67
2022-12-13 02:17:00,,0810.4,5.02,0.00,22.3,20.5,00.0,31.2,24.1,12.5,-000.1,0005.85,0013.94,0004.63
2022-12-13 02:18:00,,0810.4,4.98,0.00,22.4,21.4,00.0,31.2,24.2,12.4,-000.3,0005.88,0014.26,0004.60
2022-12-13 02:19:00,,0810.5,5.01,0.00,22.5,22.1,00.0,31.2,24.4,12.4,-000.2,0005.89,0014.53,0004.56
2022-12-13 02:20:00,,0810.4,5.01,0.00,22.5,21.9,00.0,31.2,24.4,12.4,0000.0,0005.90,0015.03,0004.53
2022-12-13 02:21:00,,0810.5,4.98,0.00,22.5,21.5,00.0,31.2,24.3,12.4,-000.2,0005.91,0015.48,0004.49
2022-12-13 02:22:00,,0810.4,5.00,0.00,22.5,21.3,00.0,31.3,24.2,12.4,0000.1,0005.88,0016.21,0004.46
2022-12-13 02:23:00,,0810.5,5.02,0.00,22.4,21.1,00.0,31.3,24.2,12.5,0000.6,0005.89,0016.76,0004.43
2022-12-13 02:24:00,,0810.4,4.99,0.00,22.4,20.9,00.0,31.3,24.2,12.5,0000.6,0005.88,0016.68,0004.42
2022-12-13 02:25:00,,0810.5,5.00,0.00,22.4,20.7,00.0,31.3,24.1,12.5,0000.9,0005.79,0015.96,0004.39
2022-12-13 02:26:00,,0810.5,5.01,0.00,22.4,20.6,00.0,31.2,24.1,12.6,0000.7,0005.84,0016.46,0004.37
2022-12-13 02:27:00,,0810.5,4.98,0.00,22.4,20.7,00.0,31.2,24.1,12.6,0000.4,0005.84,0016.84,0004.35
2022-12-13 02:28:00,,0810.6,5.02,0.00,22.4,21.5,00.0,31.2,24.3,12.6,0000.3,0005.77,0016.74,0004.35
2022-12-13 02:29:00,,0810.6,5.01,0.00,22.5,22.3,00.0,31.2,24.5,12.5,0000.6,0005.70,0017.28,0004.36
2022-12-13 02:30:00,,0810.6,4.98,0.00,22.6,22.2,00.0,31.3,24.5,12.5,0000.7,0005.67,0017.95,0004.34
2022-12-13 02:31:00,,0810.6,4.99,0.00,22.6,21.8,00.0,31.3,24.5,12.5,0001.1,0005.68,0018.33,0004.34
2022-12-13 02:32:00,,0810.7,5.02,0.00,22.6,21.5,00.0,31.3,24.4,12.5,0001.7,0005.62,0018.31,0004.33
2022-12-13 02:33:00,,0810.7,4.99,0.00,22.5,21.3,00.0,31.3,24.3,12.5,0001.8,0005.59,0019.28,0004.31
2022-12-13 02:34:00,,0810.7,4.98,0.00,22.5,21.1,00.0,31.3,24.3,12.6,0001.5,0005.62,0019.86,0004.31
2022-12-13 02:35:00,,0810.8,5.02,0.00,22.5,21.0,00.0,31.3,24.2,12.6,0001.8,0005.63,0019.27,0004.30
2022-12-13 02:36:00,,0810.9,4.98,0.00,22.5,20.9,00.0,31.3,24.2,12.6,0001.5,0005.62,0019.39,0004.29
2022-12-13 02:37:00,,0810.8,5.02,0.00,22.5,20.8,00.0,31.3,24.2,12.6,0001.2,0005.61,0020.01,0004.27
2022-12-13 02:38:00,,0810.9,4.98,0.00,22.4,20.7,00.0,31.3,24.2,12.6,0000.7,0005.58,0019.87,0004.26
2022-12-13 02:39:00,,0810.9,5.03,0.00,22.4,20.7,00.0,31.3,24.2,12.6,0000.3,0005.57,0019.97,0004.24
2022-12-13 02:40:00,,0810.9,4.99,0.00,22.4,20.7,00.0,31.3,24.2,12.6,-000.2,0005.54,0019.30,0004.21
2022-12-13 02:41:00,,0810.9,4.99,0.00,22.4,20.7,00.0,31.3,24.2,12.6,-000.4,0005.53,0018.20,0004.18
2022-12-13 02:42:00,,0810.8,5.02,0.00,22.4,20.7,00.0,31.3,24.2,12.6,-000.5,0005.52,0017.58,0004.16
2022-12-13 02:43:00,,0811.0,4.98,0.00,22.4,20.7,00.0,31.3,24.1,12.7,-000.7,0005.46,0016.95,0004.14
2022-12-13 02:44:00,,0810.9,5.02,0.00,22.3,20.6,00.0,31.3,24.1,12.7,-000.9,0005.49,0016.73,0004.13
2022-12-13 02:45:00,,0811.0,4.99,0.00,22.3,20.6,00.0,31.2,24.1,12.7,-001.3,0005.48,0015.26,0004.11
2022-12-13 02:46:00,,0811.1,4.99,0.00,22.4,21.4,00.0,31.2,24.3,12.7,-001.5,0005.40,0014.78,0004.09
2022-12-13 02:47:00,,0811.2,5.01,0.00,22.5,22.2,00.0,31.3,24.5,12.6,-001.5,0005.44,0015.29,0004.07
2022-12-13 02:48:00,,0811.2,5.02,0.00,22.6,22.2,00.0,31.3,24.5,12.5,-001.7,0005.40,0015.47,0004.06
2022-12-13 02:49:00,,0811.3,4.99,0.00,22.6,21.9,00.0,31.3,24.5,12.5,-001.6,0005.35,0015.00,0004.06
2022-12-13 02:50:00,,0811.2,4.99,0.00,22.6,21.6,00.0,31.3,24.4,12.5,-001.5,0005.39,0014.74,0004.06
2022-12-13 02:51:00,,0811.2,5.03,0.00,22.6,21.5,00.0,31.3,24.4,12.5,-001.3,0005.46,0015.71,0004.08
2022-12-13 02:52:00,,0811.1,4.99,0.00,22.5,21.4,00.0,31.3,24.4,12.5,-001.0,0005.49,0016.62,0004.08
2022-12-13 02:53:00,,0811.1,4.98,0.00,22.5,21.3,00.0,31.3,24.4,12.5,-000.4,0005.48,0016.61,0004.09
2022-12-13 02:54:00,,0811.0,5.02,0.00,22.5,21.1,00.0,31.3,24.3,12.5,-000.8,0005.49,0016.73,0004.10
2022-12-13 02:55:00,,0811.1,4.99,0.00,22.5,21.1,00.0,31.3,24.3,12.5,-000.9,0005.50,0016.59,0004.10
2022-12-13 02:56:00,,0811.1,5.00,0.00,22.5,21.1,00.0,31.3,24.3,12.5,-000.9,0005.47,0017.16,0004.10
2022-12-13 02:57:00,,0811.2,5.01,0.00,22.5,21.0,00.0,31.3,24.3,12.5,-000.6,0005.48,0017.75,0004.11
2022-12-13 02:58:00,,0811.2,4.98,0.00,22.5,21.0,00.0,31.3,24.3,12.5,-001.0,0005.44,0018.21,0004.11
2022-12-13 02:59:00,,0811.3,5.02,0.00,22.5,20.9,00.0,31.3,24.3,12.5,-000.8,0005.42,0018.50,0004.12
